Flag for Tunisia Weather past 2 weeks in Tunis, Tunisia

Now
72 °F

Scattered clouds.


Feels Like: 77 °F
Forecast: 53 / 76 °F
Wind: 18 mph from West

Location: Tunis-Carthage

Current Time: Apr 28, 2015 at 5:11:41 PM

Latest Report: Apr 28, 2015 at 4:30 PM


Visibility: N/A

Pressure: 30.04 "Hg

Humidity: 44%

Dew point: 48 °F

Location of TunisLocation

Historic Weather in Tunis — Graph

°F

Tunis temperature yesterday

Maximum temperature yesterday: 73 °F (at 3:02 PM)
Minimum temperature yesterday: 57 °F (at 6:00 AM)
Average temperature yesterday: 65 °F

Past Weeks' High & Low Weather Summary

 TemperatureHumidityPressure
High82 °F (Apr 23, 12:30 PM)100% (Apr 13, 11:00 PM)30.39 "Hg (Apr 13, 11:00 PM)
Low46 °F (Apr 15, 5:00 AM)22% (Apr 17, 1:30 AM)29.77 "Hg (Apr 27, 4:30 AM)
Average65 °F66%30.07 "Hg
* Reported Apr 13 4:00 PM — Apr 28 4:00 PM, Tunis, Weather by CustomWeather, © 2015

Note: Actual official high and low records may vary slightly from our data, if they occured in-between our weather recording intervals... More about our weather records

Advertising

Tunis weather history for previous 24 hours

 ConditionsComfort  
Time TempWeatherWind HumidityBarometerVisibility
4:00 PM
Tue, Apr 28
73 °FScattered clouds.17 mph47%30.04 "HgN/A
3:30 PM73 °FScattered clouds.18 mph47%30.01 "HgN/A
3:00 PM73 °FScattered clouds.22 mph47%30.01 "HgN/A
2:00 PM75 °FScattered clouds.18 mph44%30.01 "HgN/A
1:00 PM75 °FScattered clouds.20 mph44%30.01 "HgN/A
12:30 PM75 °FScattered clouds.20 mph44%30.01 "HgN/A
12:00 PM73 °FScattered clouds.18 mph44%30.01 "HgN/A
11:30 AM73 °FScattered clouds.18 mph44%30.01 "HgN/A
11:00 AM73 °FScattered clouds.18 mph44%30.01 "HgN/A
10:30 AM73 °FPassing clouds.16 mph41%29.98 "HgN/A
10:00 AM72 °FPassing clouds.16 mph41%29.98 "HgN/A
9:30 AM72 °FPassing clouds.18 mph38%29.98 "HgN/A
9:00 AM70 °FPassing clouds.14 mph40%29.98 "HgN/A
8:00 AM66 °FPassing clouds.14 mph46%29.95 "HgN/A
7:30 AM64 °FPassing clouds.12 mph49%29.95 "HgN/A
7:00 AM61 °FPassing clouds.10 mph52%29.95 "HgN/A
6:30 AM59 °FPassing clouds.10 mph59%29.92 "HgN/A
6:00 AM59 °FScattered clouds.9 mph59%29.92 "HgN/A
5:30 AM59 °FScattered clouds.12 mph59%29.92 "HgN/A
5:00 AM59 °FPassing clouds.9 mph59%29.92 "HgN/A
4:00 AM59 °FPassing clouds.8 mph63%29.92 "HgN/A
3:30 AM61 °FPassing clouds.8 mph55%29.92 "HgN/A
3:00 AM61 °FPassing clouds.7 mph55%29.92 "HgN/A
2:30 AM61 °FPassing clouds.10 mph55%29.92 "HgN/A
2:00 AM61 °FPassing clouds.7 mph55%29.92 "HgN/A
1:30 AM61 °FPassing clouds.7 mph55%29.92 "HgN/A
1:00 AM61 °FPassing clouds.6 mph59%29.92 "HgN/A
12:30 AM63 °FPassing clouds.9 mph56%29.92 "HgN/A
12:00 AM61 °FPassing clouds.7 mph63%29.92 "HgN/A
11:00 PM
Mon, Apr 27
63 °FPassing clouds.7 mph59%29.92 "HgN/A
10:30 PM63 °FPassing clouds.7 mph64%29.92 "HgN/A
10:00 PM63 °FPassing clouds.10 mph59%29.92 "HgN/A
9:00 PM64 °FPassing clouds.10 mph60%29.92 "HgN/A
8:30 PM64 °FPassing clouds.13 mph56%29.89 "HgN/A
8:00 PM64 °FPassing clouds.13 mph56%29.86 "HgN/A
7:30 PM66 °FPassing clouds.13 mph52%29.86 "HgN/A
7:00 PM66 °FScattered clouds.17 mph52%29.83 "HgN/A
6:30 PM68 °FScattered clouds.21 mph46%29.83 "HgN/A
6:00 PM70 °FScattered clouds.21 mph43%29.80 "HgN/A
5:30 PM72 °FScattered clouds.17 mph41%29.80 "HgN/A
5:00 PM72 °FScattered clouds.17 mph44%29.80 "HgN/A
Weather by CustomWeather, © 2015

See weather overviewHow to use our weather pages